Dewpoint
69 69 69 69 70 69 70 70 70 70 69 70 70 70 70 70 69 69 70 69 69 69 69 70 69 69 70 71 71 71 72 72 73 74 74 74 73 73 73 73 73 73 73 73 73 73 73 73 72 72 71 71 70 70 70 69 70 70 70 69 69 69 67 66 64 65 66 69 69 69 70 70 70 72 70 70 70 70 72 74 73 73 72 71 71
69 69 70 70 69 69 69 70 70 70 69 69 69 69 69 69 69 70 69 69 69 68 68 68 69 69 69 70 71 71 71 72 72 73 73 73 73 73 73 72 71 72 71 72 73 73 73 73 73 72 72 71 70 70 70 70 69 70 70 69 68 69 69 67 66 66 64 67 68 69 72 71 70 71 69 69 69 73 72 72 73 72 71 70 71
69 70 70 70 70 70 70 70 70 70 69 69 68 68 68 68 69 69 68 68 69 68 68 67 68 69 68 69 71 71 72 72 72 73 73 73 73 73 73 72 72 72 71 72 72 73 73 73 72 70 70 69 69 69 70 70 70 69 70 70 69 69 69 69 67 66 66 66 68 70 71 72 69 69 72 72 73 73 73 73 72 72 72 70 70
70 70 70 70 70 70 70 69 69 69 69 69 68 68 68 68 69 68 68 68 67 68 68 68 69 70 70 70 69 70 70 71 72 72 73 73 73 73 72 71 71 70 70 70 70 72 72 72 72 71 72 70 69 70 71 71 70 70 69 69 69 69 69 69 68 67 67 66 67 69 71 71 71 73 74 75 74 73 73 72 72 72 71 72 70
70 69 69 69 70 69 69 69 69 69 69 69 68 68 68 67 68 68 67 67 67 67 68 69 69 69 69 69 69 69 70 70 71 72 72 73 73 73 72 72 71 71 70 70 72 71 71 71 71 71 70 70 70 70 70 70 71 71 70 69 69 69 70 70 69 68 67 67 67 70 73 72 72 72 73 73 72 72 72 72 72 71 71 71 71
69 69 70 69 69 69 69 69 69 69 69 69 68 68 68 67 67 67 68 67 67 67 67 70 70 70 69 69 68 69 70 71 71 71 72 72 72 72 72 71 71 70 70 70 71 70 70 71 71 71 71 70 70 70 70 70 70 70 70 70 69 70 70 70 70 69 68 67 68 68 70 71 70 70 70 73 72 72 71 71 71 71 71 71 72
69 68 69 70 69 69 69 69 69 69 69 69 69 68 68 67 67 66 67 67 67 67 69 69 71 70 69 69 69 70 70 72 71 71 71 72 72 71 71 70 70 70 70 70 70 70 70 70 71 71 71 70 70 70 70 70 71 70 71 69 68 69 69 69 70 69 69 68 69 70 70 70 71 70 70 72 72 72 70 70 68 69 71 71 71
68 68 69 69 69 70 70 69 69 70 69 70 70 70 69 67 67 67 67 66 67 67 70 69 69 70 69 69 69 70 71 71 71 71 71 70 71 70 70 70 69 69 70 71 71 70 70 70 70 70 70 70 70 70 70 70 70 70 70 70 69 69 70 70 70 70 70 69 69 70 69 69 70 70 71 69 69 68 70 70 68 68 69 70 71
68 68 68 69 69 69 70 70 70 70 70 70 69 69 69 69 69 69 70 69 69 68 69 69 69 70 70 70 70 71 71 71 71 70 70 70 70 71 70 70 70 70 71 70 70 70 70 70 70 70 72 73 74 73 72 72 70 69 70 70 70 70 71 71 71 69 70 69 69 70 70 70 70 70 70 68 68 68 68 70 69 70 70 71 71
68 68 68 68 68 68 69 70 71 71 71 69 69 69 69 69 69 70 70 71 70 71 70 71 70 69 70 70 71 72 72 72 73 74 73 71 70 71 71 70 71 71 71 70 70 70 70 70 72 74 74 75 75 75 75 74 74 71 70 70 71 71 71 71 71 71 70 69 70 70 69 69 70 69 70 69 70 70 70 69 69 69 69 70 71
68 68 68 68 69 68 69 69 69 70 71 70 69 68 68 68 69 70 70 70 70 71 70 70 70 69 70 70 71 72 72 72 73 70 70 73 72 71 71 71 71 71 71 70 70 70 70 70 71 72 75 75 75 75 75 76 76 75 75 74 75 73 71 70 71 71 70 70 70 70 70 70 71 71 71 71 71 71 70 68 68 68 68 67 67
68 68 68 69 69 68 69 68 69 70 70 70 70 71 70 69 69 69 70 70 70 71 70 69 69 69 69 70 70 71 71 73 69 69 70 70 73 73 72 72 72 72 71 71 71 71 71 71 71 71 71 73 73 74 75 75 75 75 75 75 74 74 74 73 72 70 70 70 70 71 71 71 71 70 71 71 70 69 68 68 67 67 66 66 65
68 68 69 69 69 69 68 68 68 68 69 70 71 72 73 72 70 69 69 70 70 71 70 70 69 69 69 69 69 70 71 70 67 67 68 68 69 74 74 74 73 72 71 71 71 71 71 71 70 70 70 73 73 72 71 72 75 74 74 72 73 73 71 71 73 72 71 71 71 71 71 70 70 71 71 71 72 69 68 68 67 66 66 66 67
68 69 69 69 69 70 69 68 67 68 68 68 70 70 71 71 70 70 70 71 69 70 70 70 70 70 70 70 70 69 68 67 63 64 64 65 66 69 72 73 73 73 72 72 71 70 69 69 69 69 70 70 70 71 70 72 72 72 70 70 70 72 73 73 72 71 73 72 71 71 72 72 72 72 74 73 71 71 70 70 68 67 67 68 68
69 69 68 69 69 70 69 68 67 68 68 69 69 70 70 69 69 70 71 70 70 70 69 70 70 71 70 70 68 66 62 60 59 60 60 61 63 68 69 71 72 72 72 71 69 68 69 69 69 69 69 69 70 72 72 72 72 70 70 70 71 70 70 71 72 72 72 72 72 73 73 73 73 73 72 72 71 71 71 71 70 69 69 70 70
68 68 68 68 69 70 70 69 69 69 69 69 70 70 69 69 69 69 70 70 70 70 71 71 71 70 70 68 66 61 58 57 57 57 58 59 61 67 68 69 70 71 70 70 70 70 69 70 69 70 70 69 68 67 69 72 72 70 70 72 71 70 69 72 67 68 71 71 71 71 72 71 69 71 72 71 71 71 72 72 70 70 69 68 68
67 68 68 68 68 70 70 70 69 69 69 69 69 69 69 69 69 70 70 70 70 70 70 71 70 70 68 64 61 57 57 57 55 55 56 57 62 65 67 69 69 70 70 70 70 70 70 70 69 69 68 65 64 60 64 72 71 69 69 70 70 70 69 67 66 67 66 66 66 66 65 64 64 64 63 64 69 70 70 69 68 69 68 67 67
67 67 68 68 68 69 69 69 68 68 67 67 67 67 68 68 68 69 68 69 70 71 71 69 65 67 64 59 58 57 57 58 54 54 55 57 62 67 68 69 70 70 70 70 69 69 71 73 68 64 62 61 60 60 64 68 68 67 68 68 69 69 65 64 64 65 67 67 67 67 66 66 67 66 66 65 64 69 69 68 68 69 68 68 67
66 66 67 67 67 67 67 67 66 65 65 65 65 64 65 65 65 66 67 69 68 68 68 64 63 62 62 62 64 58 57 58 54 53 54 56 63 66 69 69 70 69 68 67 66 65 64 67 68 65 62 61 57 59 62 66 64 64 66 66 65 64 63 63 64 66 67 68 68 68 69 70 71 71 72 71 71 72 71 70 70 69 67 68 68
66 66 66 66 66 66 66 66 65 64 64 63 63 63 63 63 63 63 63 63 62 62 61 61 59 59 60 59 59 58 58 58 57 53 53 54 58 66 67 69 69 68 68 67 65 64 63 63 63 59 58 57 56 56 59 61 62 62 62 62 63 63 62 61 66 68 67 67 67 68 68 69 69 69 70 71 72 72 71 71 70 69 68 68 68
65 65 65 65 65 64 65 64 64 64 64 63 63 63 62 62 61 61 61 60 60 59 58 58 58 58 58 59 59 59 60 59 58 53 52 53 56 63 65 66 67 69 68 67 64 63 63 63 62 60 57 56 55 55 56 59 64 63 62 62 63 62 62 62 65 68 66 67 68 68 67 68 68 68 69 70 70 71 70 69 69 69 69 68 67
64 64 64 64 64 64 63 63 63 63 63 62 61 61 61 61 61 60 60 59 58 57 57 57 56 56 57 58 58 58 60 60 59 57 53 53 54 58 64 66 67 66 65 64 64 63 63 63 63 60 57 57 56 55 56 59 62 65 62 58 60 63 66 66 66 66 66 67 67 66 66 66 66 66 67 67 68 69 67 67 67 68 67 66 66
60 60 60 59 60 60 61 62 63 62 62 62 61 60 61 60 60 60 58 58 57 57 57 56 55 55 55 56 57 58 59 60 59 59 56 53 53 55 58 61 60 65 63 62 62 63 63 64 65 63 56 55 54 55 56 59 63 60 56 58 60 62 66 65 66 65 65 65 64 63 63 63 63 64 65 65 66 66 65 64 64 64 65 65 64
56 56 57 57 57 57 57 58 58 59 61 61 61 60 60 60 60 59 59 58 57 56 56 56 55 54 54 55 55 57 57 58 59 59 59 55 54 54 55 57 59 62 63 62 62 63 63 63 62 56 54 53 54 55 56 60 60 55 57 59 62 64 65 64 63 64 64 63 62 61 61 62 62 62 63 64 65 66 64 64 63 63 63 63 63
53 52 54 55 53 53 55 54 54 53 53 56 57 58 58 59 58 58 57 55 55 54 54 54 54 54 54 54 55 55 56 56 56 58 58 59 56 55 57 57 58 60 64 64 64 62 59 55 56 57 57 56 57 58 59 59 56 57 58 60 64 62 62 62 62 62 61 61 61 61 61 61 62 62 63 63 64 65 66 64 65 65 64 63 63
51 50 49 49 49 48 48 48 49 50 52 52 53 54 56 58 58 58 60 59 58 56 56 56 55 55 54 54 54 54 54 54 55 55 58 59 59 57 57 60 64 64 65 63 63 59 58 58 58 59 60 61 63 63 62 61 59 59 60 62 60 60 59 59 60 60 60 60 61 60 61 61 61 62 62 62 61 62 64 64 64 64 63 63 62
52 49 49 49 50 49 48 47 47 48 48 49 51 52 52 52 52 54 53 54 57 59 59 58 58 57 56 55 55 55 54 54 53 54 53 54 54 56 58 59 62 62 62 63 65 64 63 62 59 57 58 59 61 60 60 60 60 58 57 57 59 59 60 59 58 58 59 59 60 59 60 61 61 61 60 60 60 61 63 63 62 62 63 63 62
47 47 48 50 51 51 52 54 50 49 50 49 48 49 51 51 50 51 51 51 51 52 54 55 55 55 54 54 54 55 54 54 53 51 52 52 52 54 55 57 57 58 59 61 63 64 63 63 61 61 60 58 58 57 56 57 58 57 55 55 56 58 58 58 58 57 56 56 56 57 58 58 58 59 60 60 60 61 61 62 62 61 62 61 59
50 47 48 49 51 53 51 51 50 50 50 51 50 49 50 51 52 53 53 51 51 50 52 53 53 52 53 54 54 54 54 53 53 49 50 47 49 51 54 54 56 58 61 59 62 61 61 61 61 59 59 59 57 56 55 54 55 55 55 55 54 54 55 54 53 53 54 53 53 54 54 54 54 55 56 55 57 58 59 60 59 59 59 58 56
48 48 48 48 49 51 51 51 52 52 51 51 52 51 50 46 46 52 52 52 48 45 48 52 53 53 52 52 53 53 53 52 47 43 42 43 43 45 46 46 51 56 57 56 59 58 57 57 57 57 56 56 55 55 55 54 53 52 52 54 53 52 52 52 51 51 51 51 51 51 51 51 51 52 52 53 52 53 55 57 57 57 57 57 56
53 52 52 50 52 51 51 50 51 51 51 51 52 53 51 51 43 44 49 49 45 41 41 42 46 49 56 52 53 49 47 45 42 43 44 43 43 43 43 45 47 50 52 55 56 55 54 54 54 54 54 53 53 52 53 52 53 52 51 51 51 51 51 49 49 50 49 49 49 49 49 49 48 49 50 51 51 51 53 55 55 54 54 56 55
54 54 55 56 55 54 52 53 54 52 51 51 51 51 50 50 50 46 43 45 44 41 40 40 40 42 44 49 57 52 49 43 42 43 43 43 43 43 44 45 46 47 48 51 55 54 53 53 53 53 53 53 54 54 52 51 51 50 50 50 49 50 49 48 48 47 47 47 47 48 48 48 48 49 49 50 51 49 51 52 52 52 52 52 54
56 57 58 57 57 56 56 55 55 53 53 53 52 51 49 50 49 50 50 45 42 41 41 41 40 40 41 40 42 44 43 43 43 43 43 43 44 44 44 44 46 47 50 53 53 54 54 54 53 53 53 53 53 53 52 51 50 50 49 49 49 48 48 48 48 48 48 47 47 47 47 48 48 48 49 48 48 47 49 49 50 50 50 50 50
57 58 58 58 58 58 58 57 55 54 55 54 53 53 53 51 49 51 51 51 51 49 45 41 41 44 41 40 40 41 42 43 44 44 44 45 45 45 46 48 44 45 49 53 52 52 52 52 53 54 54 55 54 54 53 52 52 50 49 48 48 47 47 47 46 47 47 46 45 47 47 46 48 46 46 45 46 48 48 50 49 50 49 48 48
57 62 61 62 55 55 55 56 57 57 56 56 58 57 56 54 54 54 51 51 51 51 50 53 47 39 46 47 39 40 43 44 45 45 45 45 45 45 47 51 51 50 50 51 51 51 51 51 51 52 51 52 54 53 52 50 50 50 49 47 46 45 46 46 46 45 45 44 45 45 47 46 46 47 47 45 45 45 48 49 50 50 48 47 47
53 52 52 54 54 54 55 54 54 54 54 56 59 59 58 58 57 58 56 54 52 51 52 50 52 52 48 42 36 42 44 44 45 45 45 45 45 47 51 50 50 50 51 51 51 52 51 51 50 49 49 49 50 50 49 49 48 47 46 46 47 46 45 45 46 45 45 43 45 46 44 43 45 46 44 45 45 45 46 47 49 51 49 47 47
48 49 49 50 50 51 53 55 56 57 61 60 59 60 60 59 60 59 59 58 54 54 49 48 49 50 53 59 53 46 43 44 44 44 45 46 48 52 51 50 50 50 51 50 50 50 48 48 48 47 48 47 46 46 46 45 46 47 47 46 45 45 45 46 45 46 42 42 41 42 42 42 43 44 45 44 46 45 46 47 46 48 48 47 46
53 53 52 52 52 53 54 55 56 58 58 57 56 57 59 59 61 60 59 58 56 54 48 50 55 49 49 50 61 55 55 48 47 47 48 47 50 52 51 52 52 50 50 50 49 48 47 46 46 45 45 45 45 44 43 42 43 42 42 43 46 46 46 45 45 43 45 41 41 41 44 42 42 43 46 44 44 44 46 47 45 43 45 47 45
52 57 59 58 57 53 54 55 55 54 54 54 55 58 58 56 58 58 57 58 57 54 54 52 53 51 50 53 53 59 55 54 53 53 53 52 53 52 52 51 51 51 51 50 51 49 47 47 48 46 46 45 45 43 43 43 42 42 42 41 41 41 41 41 41 41 43 41 41 41 42 42 42 43 45 44 44 44 44 44 45 45 43 43 44
52 53 56 57 56 56 55 56 54 54 57 53 54 54 55 54 52 54 55 56 54 53 53 53 53 54 54 54 54 53 56 56 56 54 53 52 52 51 51 51 50 51 50 49 48 48 47 46 46 45 45 44 43 43 44 43 43 44 43 42 41 41 41 41 41 41 41 42 41 41 41 42 43 44 43 44 44 43 44 44 45 45 45 43 44
51 54 58 56 56 54 56 56 55 54 53 54 53 53 54 54 54 55 53 54 56 57 56 54 53 51 50 49 47 49 53 55 57 56 54 54 53 52 50 50 50 50 50 49 48 47 46 46 45 45 44 44 44 43 43 43 43 43 43 45 42 44 42 42 42 42 42 42 41 42 41 43 44 43 44 44 46 43 44 43 43 43 44 44 45
52 53 54 55 56 54 54 54 54 54 54 56 53 53 54 55 53 54 56 56 57 55 54 52 50 49 47 46 47 47 50 54 55 55 55 54 53 51 51 49 49 49 48 47 47 47 46 46 45 44 44 44 43 43 42 41 42 41 42 42 42 43 43 41 42 41 41 41 41 42 41 44 45 45 44 46 42 42 42 42 41 42 42 42 44
55 54 54 54 53 53 53 53 53 52 52 52 54 56 56 54 53 54 54 55 55 55 54 53 52 53 53 50 50 50 50 52 57 54 52 52 52 52 50 49 48 48 48 47 47 46 46 45 44 44 44 43 43 43 41 41 41 41 41 41 41 41 41 42 41 41 40 40 41 42 41 42 43 41 43 43 41 42 41 42 42 41 41 40 41
54 55 55 54 55 53 54 52 53 54 54 55 55 54 55 53 53 53 53 53 54 54 54 53 53 53 52 51 50 51 51 51 51 51 51 53 50 50 49 49 48 47 46 46 45 45 43 43 42 42 42 42 42 42 41 42 42 41 41 42 44 42 40 40 40 39 40 39 41 41 41 42 44 41 43 44 41 42 42 42 42 42 42 41 41
51 52 51 50 51 51 51 53 52 52 53 52 51 52 54 52 52 52 52 51 53 52 52 53 53 53 53 52 52 52 50 50 53 52 50 49 49 49 49 48 47 46 45 45 44 43 43 42 41 41 40 40 40 40 39 40 40 40 40 41 40 40 38 38 38 39 39 39 39 40 42 42 40 41 41 41 44 41 42 41 41 44 42 41 40
51 51 51 50 51 52 51 51 53 50 50 50 50 50 51 51 51 52 52 51 51 51 50 51 51 52 52 52 52 52 51 50 50 51 50 49 49 49 48 47 47 46 45 44 44 43 42 41 40 40 39 39 39 39 39 40 41 40 39 39 39 39 38 38 39 39 39 38 38 39 42 41 40 42 44 42 41 42 40 41 41 42 41 41 41
50 51 51 52 51 52 51 51 50 50 50 50 50 50 50 50 50 52 54 52 51 50 49 48 49 49 49 50 50 50 50 50 49 49 49 50 50 49 48 47 46 45 45 45 45 44 43 42 40 39 39 39 39 39 39 39 39 39 40 37 37 37 37 38 37 37 37 39 40 38 39 41 41 40 44 43 43 42 43 42 41 41 40 41 39
49 50 50 51 51 51 51 50 51 52 50 50 50 50 50 49 49 50 49 49 49 48 48 48 47 48 49 48 49 49 49 48 49 50 49 48 48 47 47 47 47 46 47 45 44 44 43 42 40 40 39 39 40 39 38 37 37 37 37 38 37 37 39 39 36 36 36 37 39 39 39 39 39 40 41 41 41 42 42 41 41 40 40 41 41
48 48 49 49 50 49 49 50 50 48 49 49 49 49 49 48 48 47 48 47 47 47 46 46 46 47 47 48 47 47 48 48 47 47 47 47 47 47 47 47 47 46 45 44 43 43 42 42 41 40 39 39 39 39 39 40 39 39 37 36 38 41 38 39 38 38 38 38 38 38 39 39 40 41 41 40 41 41 41 41 41 41 41 41 40
49 50 50 50 49 48 48 48 48 47 48 47 48 47 47 47 46 46 46 46 45 46 45 46 46 45 46 46 46 46 46 46 46 45 46 46 46 46 46 46 45 45 44 44 43 42 42 41 40 40 39 39 40 40 40 40 38 37 36 36 38 37 36 38 40 41 39 37 38 38 38 39 39 39 39 39 39 41 41 41 42 41 41 40 40
49 49 49 48 48 48 47 46 45 45 45 46 46 45 45 44 44 45 44 44 44 44 44 44 44 45 45 45 46 45 45 44 44 44 44 45 45 45 45 46 46 46 44 43 42 41 41 41 40 40 40 41 41 40 38 37 37 38 38 38 36 34 33 34 36 36 38 39 39 40 40 40 39 40 41 40 39 40 43 43 41 40 41 40 41